AAL598 KIND-KBDL

Flight info

Callsign AAL598
Flight time 1h 33m
Altitude 35000
Route MAREO5 BDOCK JHW Q82 MEMMS WILET STELA1
Aircraft B738/M-SDE2E3FGHIRWXY/LB1

Departure

Time 2025-12-29 23:53
Airport Indianapolis International Airport (KIND)

Arrival

Time 2025-12-30 01:26
Airport Bradley International Airport (KBDL)
Time Latitude Longitude Altitude Speed Heading
2025-12-29 23:40 39.71591 -86.29296 785 ft 0 kts 291°
2025-12-29 23:47 39.71588 -86.29283 784 ft 2 kts 291°
2025-12-29 23:47 39.71575 -86.29242 784 ft 2 kts 291°
2025-12-29 23:48 39.71572 -86.29231 783 ft 0 kts 291°
2025-12-29 23:48 39.71574 -86.29232 783 ft 1 kts 321°
2025-12-29 23:49 39.71578 -86.29178 783 ft 11 kts 93°
2025-12-29 23:49 39.71599 -86.28761 780 ft 19 kts 64°
2025-12-29 23:50 39.71830 -86.28446 780 ft 30 kts 45°
2025-12-29 23:50 39.71984 -86.28139 783 ft 14 kts 125°
2025-12-29 23:51 39.71928 -86.28056 783 ft 10 kts 161°
2025-12-29 23:51 39.71818 -86.28155 780 ft 10 kts 223°
2025-12-29 23:52 39.71071 -86.29154 791 ft 149 kts 234°
2025-12-29 23:52 39.69386 -86.31316 2649 ft 169 kts 226°
2025-12-29 23:53 39.66824 -86.31620 3717 ft 240 kts 151°
2025-12-29 23:53 39.64152 -86.25047 4732 ft 306 kts 105°
2025-12-29 23:54 39.64395 -86.19933 6786 ft 283 kts 68°
2025-12-29 23:54 39.64881 -86.17424 7498 ft 291 kts 67°
2025-12-29 23:55 39.66023 -86.12270 8924 ft 297 kts 56°
2025-12-29 23:55 39.67976 -86.07472 10327 ft 308 kts 51°
2025-12-29 23:56 39.70224 -86.02285 10717 ft 354 kts 52°
2025-12-29 23:56 39.72685 -85.96410 11440 ft 381 kts 54°
2025-12-29 23:57 39.75169 -85.90284 12811 ft 386 kts 54°
2025-12-29 23:57 39.78958 -85.80853 14591 ft 397 kts 54°
2025-12-29 23:58 39.81528 -85.74437 15758 ft 403 kts 54°
2025-12-29 23:58 39.82826 -85.71193 16310 ft 406 kts 54°
2025-12-29 23:59 39.85447 -85.64636 17423 ft 411 kts 54°
2025-12-29 23:59 39.88102 -85.57982 18452 ft 417 kts 54°
2025-12-30 00:00 39.90793 -85.51224 19301 ft 424 kts 55°
2025-12-30 00:00 39.93532 -85.44332 20123 ft 432 kts 55°
2025-12-30 00:01 39.96316 -85.37301 20861 ft 442 kts 56°
2025-12-30 00:01 40.00584 -85.26500 22105 ft 451 kts 57°
2025-12-30 00:02 40.03471 -85.19171 22835 ft 457 kts 57°
2025-12-30 00:02 40.06394 -85.11731 23558 ft 464 kts 57°
2025-12-30 00:03 40.07867 -85.07975 23872 ft 466 kts 57°
2025-12-30 00:03 40.10823 -85.00427 24408 ft 473 kts 58°
2025-12-30 00:04 40.13795 -84.92815 24966 ft 478 kts 58°
2025-12-30 00:05 40.19354 -84.78517 26083 ft 484 kts 58°
2025-12-30 00:07 40.31694 -84.46555 27991 ft 500 kts 59°
2025-12-30 00:09 40.43833 -84.14762 30126 ft 503 kts 60°
2025-12-30 00:11 40.56315 -83.81722 31665 ft 509 kts 60°
2025-12-30 00:13 40.68903 -83.48014 33027 ft 519 kts 60°
2025-12-30 00:15 40.83089 -83.09549 34762 ft 520 kts 60°
2025-12-30 00:17 40.93809 -82.80146 34880 ft 534 kts 61°
2025-12-30 00:19 41.06577 -82.44716 34846 ft 531 kts 61°
2025-12-30 00:21 41.18931 -82.10018 34841 ft 529 kts 62°
2025-12-30 00:23 41.31044 -81.75582 34804 ft 527 kts 62°
2025-12-30 00:24 41.41787 -81.44683 34784 ft 527 kts 62°
2025-12-30 00:27 41.55563 -81.04555 34755 ft 528 kts 62°
2025-12-30 00:28 41.65832 -80.74261 34724 ft 530 kts 62°
2025-12-30 00:31 41.80930 -80.29107 34691 ft 532 kts 63°
2025-12-30 00:33 41.91132 -79.98172 34686 ft 533 kts 63°
2025-12-30 00:35 42.02992 -79.61757 34619 ft 534 kts 64°
2025-12-30 00:37 42.14411 -79.26214 34571 ft 533 kts 64°
2025-12-30 00:39 42.22044 -78.87820 34589 ft 536 kts 81°
2025-12-30 00:41 42.27002 -78.48076 34486 ft 538 kts 81°
2025-12-30 00:43 42.31853 -78.08181 34520 ft 539 kts 81°
2025-12-30 00:45 42.36550 -77.68287 34585 ft 540 kts 82°
2025-12-30 00:47 42.41104 -77.28026 34510 ft 542 kts 83°
2025-12-30 00:49 42.45561 -76.87667 34496 ft 548 kts 84°
2025-12-30 00:50 42.49269 -76.53501 34484 ft 551 kts 84°
2025-12-30 00:52 42.53561 -76.12232 34423 ft 555 kts 85°
2025-12-30 00:55 42.53316 -75.66387 34404 ft 535 kts 109°
2025-12-30 00:56 42.47957 -75.32254 32881 ft 520 kts 111°
2025-12-30 00:59 42.47430 -74.87270 29460 ft 545 kts 96°
2025-12-30 01:00 42.48045 -74.51746 25028 ft 536 kts 95°
2025-12-30 01:01 42.48248 -74.37135 23104 ft 498 kts 95°
2025-12-30 01:02 42.48495 -74.23701 22417 ft 463 kts 99°
2025-12-30 01:02 42.48598 -74.15098 22372 ft 462 kts 99°
2025-12-30 01:03 42.48697 -74.06462 21832 ft 457 kts 99°
2025-12-30 01:03 42.48805 -73.98070 20707 ft 438 kts 101°
2025-12-30 01:04 42.48854 -73.93973 20191 ft 431 kts 101°
2025-12-30 01:04 42.48943 -73.86057 19249 ft 415 kts 99°
2025-12-30 01:05 42.49020 -73.78373 18271 ft 400 kts 99°
2025-12-30 01:05 42.49112 -73.67207 16754 ft 395 kts 97°
2025-12-30 01:06 42.49170 -73.59786 15646 ft 398 kts 98°
2025-12-30 01:06 42.49229 -73.52361 14637 ft 400 kts 96°
2025-12-30 01:07 42.48772 -73.44964 13638 ft 386 kts 115°
2025-12-30 01:07 42.46401 -73.38673 12601 ft 368 kts 135°
2025-12-30 01:08 42.44743 -73.36067 12084 ft 361 kts 143°
2025-12-30 01:08 42.40751 -73.32235 11063 ft 347 kts 156°
2025-12-30 01:09 42.37351 -73.27788 10949 ft 328 kts 138°
2025-12-30 01:09 42.33593 -73.20679 10953 ft 300 kts 138°
2025-12-30 01:10 42.30532 -73.17305 10643 ft 287 kts 160°
2025-12-30 01:10 42.27159 -73.14279 9777 ft 305 kts 148°
2025-12-30 01:11 42.24147 -73.10107 8880 ft 315 kts 141°
2025-12-30 01:11 42.22644 -73.07941 8396 ft 318 kts 141°
2025-12-30 01:12 42.19634 -73.03701 7405 ft 308 kts 141°
2025-12-30 01:12 42.16675 -72.99631 6484 ft 305 kts 140°
2025-12-30 01:13 42.13732 -72.95651 5552 ft 299 kts 141°
2025-12-30 01:13 42.09648 -72.89622 4904 ft 280 kts 134°
2025-12-30 01:14 42.07162 -72.85642 4980 ft 278 kts 140°
2025-12-30 01:14 42.04409 -72.81866 4866 ft 286 kts 137°
2025-12-30 01:15 42.03518 -72.80527 4892 ft 281 kts 137°
2025-12-30 01:15 42.01671 -72.75167 4833 ft 293 kts 81°
2025-12-30 01:16 42.03683 -72.70481 4031 ft 295 kts 44°
2025-12-30 01:16 42.06461 -72.66452 3564 ft 284 kts 38°
2025-12-30 01:17 42.09221 -72.62969 3548 ft 260 kts 37°
2025-12-30 01:17 42.12872 -72.58329 3444 ft 235 kts 36°
2025-12-30 01:18 42.15307 -72.55259 2805 ft 239 kts 37°
2025-12-30 01:18 42.16438 -72.51342 2490 ft 235 kts 112°
2025-12-30 01:19 42.15615 -72.49557 2483 ft 219 kts 138°
2025-12-30 01:19 42.13369 -72.47551 2469 ft 179 kts 195°
2025-12-30 01:20 42.10844 -72.48002 2465 ft 184 kts 199°
2025-12-30 01:20 42.08654 -72.49305 2460 ft 166 kts 229°
2025-12-30 01:21 42.07027 -72.51510 2461 ft 167 kts 231°
2025-12-30 01:21 42.04562 -72.54730 2451 ft 154 kts 231°
2025-12-30 01:22 42.03150 -72.56584 2425 ft 138 kts 232°
2025-12-30 01:22 42.02471 -72.57476 2279 ft 134 kts 232°
2025-12-30 01:23 42.01228 -72.59110 1928 ft 120 kts 232°
2025-12-30 01:23 42.00002 -72.60724 1579 ft 126 kts 231°
2025-12-30 01:24 41.98767 -72.62346 1249 ft 122 kts 230°
2025-12-30 01:24 41.97518 -72.63989 890 ft 132 kts 226°
2025-12-30 01:25 41.96201 -72.65719 570 ft 135 kts 222°
2025-12-30 01:25 41.94264 -72.68277 215 ft 108 kts 226°
2025-12-30 01:26 41.93904 -72.68748 215 ft 41 kts 224°
2025-12-30 01:26 41.93715 -72.68801 209 ft 10 kts 138°
2025-12-30 01:27 41.93593 -72.68642 209 ft 21 kts 134°
2025-12-30 01:27 41.93373 -72.68344 206 ft 24 kts 135°
2025-12-30 01:28 41.93117 -72.68259 207 ft 13 kts 262°
2025-12-30 01:28 41.93138 -72.68326 207 ft 0 kts 312°